#timestamp,LO_Frequency,Hit,StdDev 
1509523215.8,286046999.0,N
1509523235.6,286046998.7,N
1509523255.5,286047000.0,N
1509523275.3,286047000.9,N
1509523295.1,286047000.0,N
1509523315.9,286046999.8,N
1509523335.7,286047000.9,N
1509523355.5,286046998.4,N
1509523375.4,286046998.7,N
1509523395.2,286046999.0,N
1509523415.1,286046998.4,N
1509523416.0,286046998.4,N
1509523435.8,286047000.7,N
1509523455.6,286047002.7,N
1509523475.5,286047002.4,N
1509523495.3,286047002.7,N
1509523515.1,286047002.7,N
1509523535.9,286047002.2,N
1509523555.7,286047000.2,N
1509523575.6,286047002.5,N
1509523595.4,286047002.5,N
1509523615.2,286047002.8,N
1509523635.1,286046999.9,N
1509523636.0,286046999.9,N
1509523655.8,286047002.3,N
1509523675.6,286046999.9,N
1509523695.5,286047001.0,N
1509523715.3,286047001.2,N
1509523735.2,286046999.8,N
1509523755.9,286047002.4,N
1509523775.7,286046999.9,N
1509523795.6,286046999.7,N
1509523815.4,286047000.4,N
1509523835.2,286047000.9,N
1509523855.1,286047000.8,N
1509523856.0,286047000.8,N
1509523875.8,286046999.6,N
1509523895.7,286046997.4,N
1509523915.5,286046999.4,N
1509523965.4,286047000.5,E
1509523975.3,286047000.6,N
1509523995.1,286047002.4,P
1509524015.8,286047000.0,N
1509524035.7,286047002.7,N
1509524055.5,286047001.0,N
1509524075.4,286047000.2,N
1509524095.2,286046999.8,N
1509524115.0,286047002.3,N
1509524115.9,286047002.3,N
1509524135.8,286047000.0,N
1509524155.6,286047000.6,N
1509524175.4,286047000.5,N
1509524195.3,286047002.4,N
1509524215.1,286047000.2,N
1509524235.9,286047000.4,N
1509524255.7,286047001.0,N
1509524275.5,286046998.4,N
1509524295.4,286046998.2,N
1509524315.2,286046998.8,N
1509524335.1,286046998.5,N
1509524336.0,286046998.5,N
1509524355.8,286046998.2,N
1509524375.6,286046998.2,N
1509524395.5,286047000.6,N
1509524415.3,286047000.4,N
1509524435.1,286047002.7,N
1509524455.9,286047002.5,N
1509524475.7,286047002.2,N
1509524495.6,286047001.6,N
1509524515.4,286046999.9,N
1509524535.2,286047001.0,N
1509524555.1,286047000.6,N
1509524556.0,286047000.6,N
1509524575.8,286047000.9,N
1509524595.6,286047000.2,N
1509524615.5,286046999.7,N
1509524635.3,286047000.7,N
1509524655.2,286047000.9,N
1509524675.9,286047000.4,N
1509524695.7,286046999.7,N
1509524715.6,286047001.0,N
1509524735.4,286047000.4,N
1509524755.2,286046998.2,N
1509524775.1,286047002.6,N
1509524776.0,286047002.6,N
1509524795.8,286047002.5,N
1509524815.7,286046999.7,N
1509524835.5,286047002.6,N
1509524855.3,286047002.8,N
1509524875.2,286047002.4,N
1509524895.0,286047001.2,N
1509524895.9,286047001.2,N
1509524915.8,286046999.3,N
1509524935.6,286046998.6,N
1509524955.4,286047000.5,N
1509524975.3,286046998.5,N
1509524995.1,286046998.2,N
1509525015.8,286046998.2,N
1509525035.7,286046998.6,N
1509525055.5,286047001.1,N
1509525075.4,286047000.8,N
1509525095.2,286047000.5,N
1509525115.0,286047000.0,N
1509525115.9,286047000.0,N
1509525135.8,286046998.5,N
1509525155.6,286046998.7,N
1509525175.4,286046999.2,N
1509525195.3,286046999.0,N
1509525215.1,286046998.7,N
1509525235.9,286046999.1,N
1509525255.7,286046999.2,N
1509525275.5,286046995.4,Y
1509525295.4,286046996.5,P
1509525315.2,286046997.2,N
1509525335.0,286046995.0,P
1509525335.9,286046995.0,N
1509525355.8,286046997.1,N
1509525375.6,286046996.7,N
1509525395.5,286046996.5,N
1509525415.3,286046997.0,N
1509525435.1,286046997.0,N
1509525455.9,286046997.1,N
1509525475.7,286046999.5,N
1509525495.5,286046999.5,N
1509525515.4,286046997.5,N
1509525535.2,286046994.9,Y
1509525555.1,286047000.5,P
1509525556.0,286047000.5,N
1509525575.8,286047002.5,N
1509525595.6,286047001.9,N
1509525615.5,286047000.1,N
1509525635.3,286047000.9,N
1509525655.1,286046999.1,N
1509525675.9,286046997.2,N
1509525695.7,286046999.0,N
1509525715.6,286046999.5,N
1509525735.4,286046998.0,N
1509525755.2,286046998.0,N
1509525775.1,286046998.0,N
1509525776.0,286046998.0,N
1509525795.8,286046997.6,N
1509525815.6,286046997.6,N
1509525835.5,286046996.9,N
1509525855.5,286046997.0,N
1509525875.3,286046997.9,N
1509525895.2,286046995.2,N
1509525915.9,286046995.9,N
1509525935.7,286046996.3,N
1509525955.6,286046997.7,N
1509525975.4,286046996.5,N
1509525995.2,286046999.3,N
1509526015.1,286047000.9,N
1509526016.0,286047000.9,N
1509526035.8,286047001.0,N
1509526055.7,286047000.4,N
1509526075.5,286047000.2,N
1509526095.3,286047000.7,N
1509526115.2,286047000.7,N
1509526135.9,286046996.5,N
1509526155.7,286046997.8,N
1509526175.6,286046997.8,N
1509526195.4,286046996.8,N
1509526215.2,286046997.7,N
1509526235.1,286046997.1,N
1509526236.0,286046997.1,N
1509526255.8,286046997.7,N
1509526275.7,286046996.9,N
1509526295.5,286046996.9,N
1509526315.3,286046994.9,Y
1509526335.2,286046997.1,P
1509526355.0,286046998.2,P
1509526355.9,286046998.2,P
1509526375.8,286047001.0,N
1509526395.6,286047000.2,N
1509526415.4,286046998.3,N
1509526435.3,286046996.5,N
1509526455.1,286046997.1,N
1509526475.8,286046996.9,N
1509526495.7,286046996.6,N
1509526515.5,286046996.7,N
1509526535.4,286046999.2,N
1509526555.2,286046998.4,N
1509526575.0,286047001.0,N
1509526575.9,286047001.0,N
1509526595.8,286046998.4,N
1509526615.6,286046998.5,N
1509526635.4,286046999.0,N
1509526655.3,286047000.8,N
1509526675.1,286047000.6,N
1509526695.9,286046996.5,N
1509526715.7,286046997.4,N
1509526735.5,286046999.1,N
1509526755.4,286046999.2,N
1509526775.2,286046997.1,N
1509526795.0,286046999.2,N
1509526795.9,286046999.2,N
